TimeCST,TemperatureF,Dew PointF,Humidity,Sea Level PressureIn,VisibilityMPH,Wind Direction,Wind SpeedMPH,Gust SpeedMPH,PrecipitationIn,Events,Conditions,WindDirDegrees,DateUTC
12:15 AM,8.4,1.0,72,30.51,10.0,North,5.8,-,N/A,,Clear,10,2013-01-24 06:15:00
12:35 AM,7.7,1.4,75,30.51,10.0,NNE,8.1,-,N/A,,Clear,30,2013-01-24 06:35:00
12:55 AM,6.8,-1.8,68,30.54,10.0,NNE,8.1,-,N/A,,Clear,20,2013-01-24 06:55:00
1:15 AM,6.1,-2.4,68,30.54,10.0,NNE,9.2,-,N/A,,Clear,20,2013-01-24 07:15:00
1:35 AM,5.7,-2.2,70,30.54,10.0,NNE,9.2,-,N/A,,Clear,30,2013-01-24 07:35:00
1:55 AM,5.0,-3.5,68,30.54,10.0,NNE,5.8,-,N/A,,Clear,30,2013-01-24 07:55:00
2:15 AM,4.5,-3.6,69,30.54,10.0,NNE,5.8,-,N/A,,Clear,30,2013-01-24 08:15:00
2:35 AM,4.1,-4.0,69,30.54,10.0,NE,8.1,-,N/A,,Clear,40,2013-01-24 08:35:00
2:55 AM,3.7,-4.0,70,30.54,10.0,NNE,5.8,-,N/A,,Clear,20,2013-01-24 08:55:00
3:15 AM,3.6,-4.2,70,30.55,10.0,NNE,4.6,-,N/A,,Clear,30,2013-01-24 09:15:00
3:35 AM,3.4,-4.0,71,30.54,10.0,NE,5.8,-,N/A,,Clear,40,2013-01-24 09:35:00
3:55 AM,3.2,-4.0,72,30.54,10.0,NE,4.6,-,N/A,,Clear,40,2013-01-24 09:55:00
4:15 AM,3.2,-4.0,72,30.54,10.0,NE,4.6,-,N/A,,Clear,40,2013-01-24 10:15:00
4:35 AM,3.2,-4.2,71,30.53,10.0,NE,5.8,-,N/A,,Clear,50,2013-01-24 10:35:00
4:55 AM,3.6,-4.2,70,30.52,10.0,NE,6.9,-,N/A,,Clear,40,2013-01-24 10:55:00
5:15 AM,3.2,-4.9,69,30.52,10.0,ENE,8.1,-,N/A,,Clear,70,2013-01-24 11:15:00
5:35 AM,3.0,-5.3,68,30.51,10.0,ENE,5.8,-,N/A,,Clear,60,2013-01-24 11:35:00
5:55 AM,2.8,-4.9,70,30.50,10.0,ENE,5.8,-,N/A,,Clear,60,2013-01-24 11:55:00
6:15 AM,2.8,-4.4,72,30.49,10.0,ENE,6.9,-,N/A,,Clear,70,2013-01-24 12:15:00
6:35 AM,2.8,-4.9,70,30.51,10.0,ENE,6.9,-,N/A,,Clear,70,2013-01-24 12:35:00
6:55 AM,2.8,-4.5,71,30.50,10.0,East,8.1,-,N/A,,Clear,100,2013-01-24 12:55:00
7:15 AM,2.8,-4.0,73,30.50,10.0,ENE,8.1,-,N/A,,Clear,70,2013-01-24 13:15:00
7:35 AM,3.0,-4.2,72,30.51,10.0,East,8.1,-,N/A,,Clear,80,2013-01-24 13:35:00
7:55 AM,2.8,-4.4,72,30.51,10.0,East,6.9,-,N/A,,Clear,90,2013-01-24 13:55:00
8:15 AM,2.8,-4.2,73,30.50,10.0,East,8.1,-,N/A,,Clear,80,2013-01-24 14:15:00
8:35 AM,3.2,-3.8,73,30.50,10.0,East,9.2,-,N/A,,Clear,90,2013-01-24 14:35:00
8:55 AM,3.9,-3.5,71,30.48,10.0,East,10.4,-,N/A,,Clear,80,2013-01-24 14:55:00
9:15 AM,4.6,-2.9,71,30.50,10.0,East,8.1,-,N/A,,Clear,100,2013-01-24 15:15:00
9:35 AM,4.8,-3.1,70,30.49,10.0,East,10.4,-,N/A,,Clear,90,2013-01-24 15:35:00
9:55 AM,5.9,-2.2,69,30.51,10.0,SE,9.2,-,N/A,,Clear,130,2013-01-24 15:55:00
10:15 AM,6.6,-1.5,69,30.49,10.0,ESE,8.1,-,N/A,,Clear,120,2013-01-24 16:15:00
10:35 AM,7.3,-1.1,68,30.48,10.0,ESE,10.4,-,N/A,,Clear,120,2013-01-24 16:35:00
10:55 AM,8.6,-0.2,67,30.48,10.0,ESE,9.2,-,N/A,,Clear,110,2013-01-24 16:55:00
11:15 AM,9.9,-0.0,64,30.47,10.0,ESE,9.2,-,N/A,,Clear,120,2013-01-24 17:15:00
11:35 AM,10.4,-0.0,63,30.46,10.0,SSE,9.2,-,N/A,,Clear,150,2013-01-24 17:35:00
11:55 AM,10.4,-0.2,62,30.43,10.0,SE,8.1,-,N/A,,Clear,130,2013-01-24 17:55:00
12:15 PM,10.9,0.3,62,30.40,10.0,ESE,12.7,16.1,N/A,,Clear,120,2013-01-24 18:15:00
12:35 PM,12.2,1.8,63,30.39,10.0,SE,10.4,-,N/A,,Clear,130,2013-01-24 18:35:00
12:55 PM,12.2,1.0,61,30.38,10.0,SSE,8.1,-,N/A,,Clear,150,2013-01-24 18:55:00
1:15 PM,13.5,2.1,61,30.37,10.0,SE,4.6,-,N/A,,Clear,130,2013-01-24 19:15:00
1:35 PM,14.0,1.6,58,30.34,10.0,SSE,9.2,-,N/A,,Scattered Clouds,150,2013-01-24 19:35:00
1:55 PM,13.8,2.1,60,30.32,10.0,SE,8.1,-,N/A,,Overcast,130,2013-01-24 19:55:00
2:15 PM,14.0,2.8,61,30.31,10.0,SE,8.1,-,N/A,,Overcast,130,2013-01-24 20:15:00
2:35 PM,14.9,3.0,59,30.29,10.0,ESE,10.4,-,N/A,,Overcast,120,2013-01-24 20:35:00
2:55 PM,15.1,3.4,60,30.28,10.0,SE,11.5,-,N/A,,Overcast,130,2013-01-24 20:55:00
3:15 PM,15.8,3.7,59,30.26,10.0,ESE,10.4,-,N/A,,Overcast,110,2013-01-24 21:15:00
3:35 PM,16.2,4.1,59,30.25,10.0,ESE,11.5,-,N/A,,Overcast,110,2013-01-24 21:35:00
3:55 PM,16.3,3.9,58,30.24,10.0,SE,9.2,-,N/A,,Overcast,130,2013-01-24 21:55:00
4:15 PM,17.2,3.9,56,30.24,10.0,SE,12.7,-,N/A,,Overcast,130,2013-01-24 22:15:00
4:35 PM,17.1,3.2,55,30.22,10.0,SE,12.7,-,N/A,,Overcast,140,2013-01-24 22:35:00
4:55 PM,17.2,3.2,54,30.21,10.0,SE,12.7,-,N/A,,Overcast,140,2013-01-24 22:55:00
5:15 PM,17.6,3.6,54,30.21,10.0,SE,11.5,-,N/A,,Overcast,130,2013-01-24 23:15:00
5:35 PM,17.6,3.4,54,30.19,10.0,SE,11.5,-,N/A,,Overcast,130,2013-01-24 23:35:00
5:55 PM,17.6,4.5,56,30.18,10.0,SE,10.4,-,N/A,,Overcast,140,2013-01-24 23:55:00
6:15 PM,18.0,5.0,57,30.17,10.0,SSE,11.5,-,N/A,,Overcast,150,2013-01-25 00:15:00
6:35 PM,18.3,4.5,55,30.18,10.0,SE,12.7,-,N/A,,Overcast,140,2013-01-25 00:35:00
6:55 PM,18.5,4.6,55,30.19,10.0,SSE,6.9,-,N/A,,Overcast,150,2013-01-25 00:55:00
7:15 PM,18.5,4.8,55,30.18,10.0,SSE,12.7,-,N/A,,Overcast,150,2013-01-25 01:15:00
7:35 PM,18.5,4.8,55,30.16,10.0,SSE,13.8,19.6,N/A,,Overcast,160,2013-01-25 01:35:00
7:55 PM,18.7,5.7,57,30.17,10.0,SSE,10.4,-,N/A,,Overcast,150,2013-01-25 01:55:00
8:15 PM,18.9,5.7,57,30.16,10.0,SSE,11.5,-,N/A,,Overcast,150,2013-01-25 02:15:00
8:35 PM,19.0,6.3,58,30.17,10.0,SSE,6.9,-,N/A,,Overcast,160,2013-01-25 02:35:00
8:55 PM,19.2,5.9,56,30.19,10.0,SSE,6.9,-,N/A,,Overcast,160,2013-01-25 02:55:00
9:15 PM,19.2,6.3,57,30.19,10.0,SSE,6.9,-,N/A,,Overcast,160,2013-01-25 03:15:00
9:35 PM,19.4,5.9,56,30.19,10.0,SSE,5.8,-,N/A,,Overcast,160,2013-01-25 03:35:00
9:55 PM,19.4,6.1,56,30.19,10.0,SSE,6.9,-,N/A,,Overcast,160,2013-01-25 03:55:00
10:15 PM,19.4,7.3,60,30.17,10.0,SE,8.1,-,N/A,,Overcast,140,2013-01-25 04:15:00
10:35 PM,19.4,6.8,58,30.18,10.0,SE,6.9,-,N/A,,Overcast,140,2013-01-25 04:35:00
10:55 PM,19.2,7.7,61,30.18,10.0,SSE,6.9,-,N/A,,Mostly Cloudy,150,2013-01-25 04:55:00
11:15 PM,19.4,8.1,61,30.19,10.0,SSE,5.8,-,N/A,,Scattered Clouds,160,2013-01-25 05:15:00
11:35 PM,19.4,7.7,60,30.18,10.0,SSE,5.8,-,N/A,,Clear,160,2013-01-25 05:35:00
11:55 PM,18.5,8.1,64,30.17,10.0,SE,5.8,-,N/A,,Clear,140,2013-01-25 05:55:00